QPF
0.01 0.01 0.00 0.01 0.01 0.01 0.01 0.02 0.02 0.02 0.02 0.01 0.01 0.00 0.00 0.00 0.00 0.00 0.00 0.00 0.01 0.01 0.01 0.01 0.02 0.03 0.02 0.02 0.01 0.02 0.02 0.01 0.02 0.02 0.02 0.02 0.02 0.02 0.02 0.02 0.02 0.02 0.01 0.01
0.01 0.01 0.01 0.01 0.01 0.01 0.01 0.02 0.02 0.03 0.03 0.03 0.02 0.01 0.01 0.00 0.00 0.00 0.00 0.00 0.00 0.00 0.01 0.01 0.02 0.02 0.03 0.03 0.02 0.02 0.02 0.01 0.02 0.02 0.02 0.02 0.03 0.03 0.02 0.02 0.02 0.02 0.02 0.02
0.01 0.01 0.02 0.01 0.01 0.01 0.01 0.01 0.02 0.03 0.03 0.03 0.03 0.02 0.01 0.01 0.00 0.00 0.00 0.00 0.00 0.00 0.01 0.01 0.01 0.02 0.02 0.03 0.02 0.01 0.02 0.02 0.02 0.02 0.02 0.02 0.02 0.03 0.03 0.03 0.03 0.03 0.02 0.02
0.01 0.01 0.01 0.01 0.01 0.01 0.01 0.01 0.02 0.02 0.02 0.02 0.02 0.02 0.02 0.01 0.01 0.01 0.01 0.01 0.01 0.00 0.00 0.01 0.02 0.02 0.02 0.02 0.02 0.02 0.01 0.02 0.04 0.03 0.02 0.03 0.03 0.03 0.03 0.03 0.02 0.02 0.01 0.02
0.00 0.01 0.01 0.00 0.01 0.01 0.01 0.01 0.01 0.01 0.02 0.02 0.02 0.01 0.01 0.01 0.01 0.01 0.01 0.01 0.01 0.01 0.01 0.01 0.01 0.02 0.02 0.01 0.02 0.02 0.02 0.03 0.03 0.02 0.02 0.03 0.03 0.03 0.03 0.03 0.03 0.03 0.02 0.02
0.01 0.01 0.01 0.00 0.00 0.01 0.01 0.01 0.01 0.01 0.01 0.01 0.01 0.01 0.01 0.01 0.01 0.01 0.01 0.01 0.01 0.01 0.01 0.01 0.01 0.01 0.01 0.01 0.01 0.01 0.01 0.02 0.03 0.03 0.03 0.03 0.03 0.03 0.03 0.04 0.04 0.04 0.04 0.03
0.01 0.01 0.01 0.00 0.00 0.00 0.01 0.01 0.01 0.01 0.01 0.01 0.01 0.01 0.01 0.00 0.01 0.01 0.01 0.01 0.01 0.01 0.02 0.02 0.01 0.01 0.02 0.01 0.01 0.01 0.01 0.01 0.02 0.02 0.02 0.02 0.03 0.03 0.03 0.04 0.04 0.03 0.03 0.03
0.02 0.01 0.01 0.00 0.00 0.01 0.01 0.01 0.01 0.00 0.00 0.00 0.00 0.00 0.00 0.00 0.00 0.00 0.00 0.00 0.00 0.01 0.01 0.02 0.02 0.02 0.02 0.02 0.01 0.01 0.01 0.01 0.01 0.02 0.02 0.02 0.02 0.02 0.02 0.02 0.03 0.03 0.03 0.03
0.01 0.01 0.01 0.00 0.01 0.01 0.01 0.01 0.00 0.00 0.00 0.00 0.00 0.00 0.00 0.00 0.00 0.01 0.01 0.00 0.00 0.00 0.01 0.01 0.02 0.03 0.03 0.03 0.03 0.02 0.02 0.01 0.01 0.02 0.02 0.02 0.02 0.02 0.02 0.02 0.02 0.02 0.03 0.03
0.01 0.00 0.00 0.00 0.00 0.00 0.00 0.00 0.00 0.00 0.00 0.00 0.00 0.00 0.00 0.00 0.01 0.01 0.00 0.00 0.00 0.00 0.00 0.01 0.02 0.02 0.03 0.04 0.04 0.04 0.03 0.03 0.02 0.02 0.01 0.02 0.02 0.02 0.02 0.02 0.02 0.03 0.03 0.03
0.00 0.00 0.00 0.00 0.00 0.00 0.00 0.00 0.00 0.00 0.00 0.00 0.00 0.00 0.00 0.00 0.00 0.01 0.01 0.00 0.00 0.00 0.00 0.01 0.02 0.02 0.02 0.02 0.02 0.03 0.03 0.03 0.02 0.02 0.02 0.02 0.02 0.02 0.02 0.02 0.02 0.03 0.02 0.03
0.00 0.00 0.00 0.00 0.00 0.00 0.00 0.00 0.01 0.00 0.00 0.00 0.00 0.00 0.00 0.00 0.00 0.00 0.01 0.01 0.00 0.00 0.00 0.01 0.01 0.01 0.01 0.01 0.02 0.02 0.02 0.02 0.02 0.02 0.02 0.02 0.02 0.02 0.02 0.02 0.02 0.02 0.02 0.03
0.01 0.00 0.00 0.00 0.00 0.00 0.00 0.00 0.01 0.01 0.01 0.01 0.00 0.00 0.00 0.00 0.00 0.00 0.00 0.00 0.01 0.01 0.00 0.00 0.00 0.00 0.00 0.01 0.01 0.02 0.02 0.02 0.02 0.01 0.02 0.02 0.02 0.01 0.01 0.01 0.01 0.01 0.02 0.02
0.02 0.01 0.01 0.00 0.00 0.00 0.00 0.00 0.00 0.00 0.00 0.01 0.00 0.00 0.00 0.00 0.00 0.00 0.00 0.00 0.00 0.00 0.00 0.00 0.00 0.00 0.00 0.00 0.01 0.01 0.02 0.02 0.02 0.02 0.01 0.01 0.01 0.01 0.01 0.01 0.01 0.01 0.02 0.02
0.02 0.02 0.02 0.01 0.01 0.00 0.00 0.00 0.00 0.00 0.00 0.00 0.00 0.00 0.00 0.00 0.00 0.00 0.00 0.00 0.00 0.00 0.00 0.00 0.00 0.00 0.00 0.00 0.01 0.01 0.01 0.02 0.01 0.01 0.01 0.01 0.01 0.01 0.00 0.00 0.01 0.01 0.01 0.02
0.01 0.01 0.02 0.02 0.02 0.01 0.01 0.00 0.00 0.00 0.00 0.01 0.01 0.01 0.01 0.01 0.00 0.00 0.00 0.00 0.00 0.00 0.00 0.00 0.00 0.00 0.00 0.00 0.01 0.01 0.01 0.01 0.01 0.01 0.01 0.01 0.01 0.01 0.00 0.00 0.01 0.01 0.01 0.01
0.01 0.01 0.01 0.01 0.01 0.01 0.01 0.00 0.00 0.00 0.01 0.01 0.01 0.02 0.02 0.02 0.01 0.00 0.00 0.00 0.00 0.00 0.00 0.00 0.00 0.00 0.01 0.01 0.01 0.01 0.01 0.01 0.01 0.01 0.01 0.01 0.01 0.01 0.01 0.01 0.01 0.01 0.01 0.01
0.01 0.01 0.01 0.01 0.01 0.01 0.01 0.01 0.01 0.01 0.01 0.01 0.01 0.01 0.01 0.01 0.00 0.00 0.00 0.00 0.00 0.00 0.01 0.00 0.00 0.01 0.01 0.01 0.01 0.01 0.01 0.01 0.01 0.01 0.01 0.01 0.01 0.01 0.01 0.01 0.01 0.01 0.01 0.00
0.01 0.01 0.00 0.00 0.00 0.00 0.01 0.01 0.01 0.01 0.01 0.01 0.01 0.01 0.01 0.01 0.01 0.01 0.01 0.01 0.01 0.01 0.01 0.01 0.01 0.01 0.01 0.01 0.01 0.01 0.01 0.01 0.01 0.01 0.01 0.01 0.02 0.02 0.02 0.02 0.02 0.01 0.01 0.01
0.01 0.00 0.00 0.00 0.00 0.00 0.00 0.01 0.01 0.01 0.01 0.01 0.01 0.01 0.01 0.01 0.01 0.01 0.01 0.01 0.01 0.01 0.01 0.01 0.01 0.01 0.01 0.01 0.01 0.01 0.01 0.01 0.01 0.01 0.01 0.01 0.02 0.02 0.02 0.01 0.01 0.01 0.01 0.01
0.01 0.00 0.00 0.00 0.00 0.00 0.00 0.00 0.00 0.01 0.01 0.01 0.01 0.01 0.00 0.00 0.00 0.01 0.01 0.01 0.01 0.01 0.01 0.01 0.01 0.01 0.01 0.01 0.01 0.01 0.01 0.01 0.01 0.01 0.01 0.02 0.02 0.02 0.02 0.02 0.01 0.01 0.00 0.00
0.00 0.00 0.00 0.00 0.00 0.00 0.00 0.00 0.01 0.01 0.01 0.01 0.01 0.01 0.00 0.00 0.00 0.01 0.01 0.01 0.01 0.01 0.01 0.01 0.01 0.01 0.01 0.01 0.00 0.00 0.00 0.00 0.01 0.01 0.01 0.01 0.02 0.02 0.01 0.01 0.02 0.01 0.00 0.00
0.00 0.00 0.00 0.00 0.00 0.01 0.01 0.01 0.01 0.01 0.01 0.01 0.00 0.01 0.01 0.01 0.01 0.01 0.01 0.01 0.01 0.01 0.01 0.00 0.01 0.01 0.01 0.00 0.00 0.00 0.01 0.01 0.01 0.01 0.01 0.01 0.01 0.01 0.01 0.01 0.01 0.02 0.01 0.01
0.00 0.00 0.00 0.00 0.01 0.01 0.01 0.02 0.01 0.01 0.01 0.01 0.01 0.00 0.01 0.01 0.01 0.01 0.01 0.01 0.01 0.01 0.01 0.01 0.01 0.01 0.01 0.01 0.01 0.00 0.00 0.00 0.00 0.01 0.01 0.01 0.01 0.01 0.01 0.01 0.02 0.02 0.01 0.01
0.00 0.00 0.00 0.00 0.00 0.01 0.01 0.01 0.01 0.01 0.01 0.01 0.01 0.01 0.01 0.01 0.01 0.01 0.01 0.01 0.01 0.01 0.01 0.01 0.01 0.01 0.01 0.01 0.01 0.00 0.00 0.00 0.00 0.00 0.00 0.00 0.01 0.01 0.01 0.01 0.01 0.01 0.01 0.01
0.01 0.00 0.00 0.00 0.00 0.01 0.01 0.01 0.02 0.01 0.01 0.02 0.02 0.01 0.01 0.01 0.01 0.01 0.01 0.01 0.01 0.01 0.01 0.01 0.01 0.01 0.01 0.01 0.01 0.01 0.01 0.01 0.01 0.01 0.01 0.01 0.01 0.01 0.01 0.01 0.02 0.02 0.02 0.02
0.00 0.00 0.00 0.00 0.00 0.01 0.01 0.01 0.01 0.02 0.02 0.02 0.02 0.02 0.01 0.01 0.01 0.01 0.01 0.01 0.00 0.00 0.00 0.01 0.01 0.01 0.01 0.01 0.01 0.01 0.01 0.01 0.01 0.01 0.01 0.01 0.01 0.01 0.01 0.01 0.01 0.02 0.02 0.02
MSLP
1018.51 1019.01 1019.49 1019.93 1020.31 1020.61 1020.82 1020.93 1020.95 1020.90 1020.82 1020.74 1020.69 1020.70 1020.79 1020.95 1021.17 1021.43 1021.69 1021.92 1022.11 1022.24 1022.30 1022.32 1022.31 1022.28 1022.26 1022.25 1022.26 1022.28 1022.28 1022.25 1022.19 1022.08 1021.92 1021.74 1021.55 1021.37 1021.22 1021.13 1021.09 1021.10 1021.16 1021.24
1018.66 1019.03 1019.35 1019.62 1019.82 1019.95 1020.02 1020.04 1020.02 1020.00 1019.98 1019.99 1020.07 1020.21 1020.42 1020.68 1020.97 1021.28 1021.56 1021.81 1022.01 1022.15 1022.24 1022.30 1022.34 1022.39 1022.44 1022.51 1022.58 1022.65 1022.70 1022.71 1022.67 1022.59 1022.46 1022.31 1022.15 1022.00 1021.88 1021.80 1021.77 1021.78 1021.83 1021.89
1019.01 1019.22 1019.35 1019.41 1019.42 1019.38 1019.31 1019.23 1019.17 1019.15 1019.18 1019.27 1019.44 1019.67 1019.96 1020.29 1020.63 1020.97 1021.27 1021.53 1021.75 1021.92 1022.06 1022.18 1022.29 1022.42 1022.55 1022.69 1022.83 1022.96 1023.05 1023.09 1023.08 1023.02 1022.92 1022.80 1022.67 1022.56 1022.48 1022.43 1022.42 1022.43 1022.46 1022.50
1019.46 1019.49 1019.42 1019.27 1019.08 1018.87 1018.67 1018.50 1018.40 1018.37 1018.42 1018.58 1018.81 1019.12 1019.47 1019.85 1020.22 1020.58 1020.90 1021.18 1021.43 1021.64 1021.84 1022.03 1022.23 1022.44 1022.65 1022.86 1023.06 1023.23 1023.35 1023.42 1023.43 1023.40 1023.32 1023.23 1023.14 1023.07 1023.02 1023.00 1023.00 1023.02 1023.04 1023.06
1019.87 1019.70 1019.43 1019.09 1018.72 1018.36 1018.05 1017.81 1017.66 1017.64 1017.73 1017.93 1018.23 1018.59 1018.99 1019.41 1019.82 1020.20 1020.54 1020.86 1021.14 1021.41 1021.67 1021.94 1022.22 1022.51 1022.79 1023.06 1023.30 1023.50 1023.64 1023.72 1023.75 1023.73 1023.68 1023.61 1023.55 1023.51 1023.49 1023.49 1023.50 1023.51 1023.52 1023.50
1020.06 1019.72 1019.28 1018.78 1018.26 1017.79 1017.39 1017.11 1016.96 1016.95 1017.09 1017.34 1017.69 1018.11 1018.56 1019.02 1019.46 1019.87 1020.26 1020.61 1020.94 1021.27 1021.60 1021.94 1022.29 1022.63 1022.97 1023.28 1023.54 1023.75 1023.90 1023.98 1024.01 1024.00 1023.96 1023.92 1023.89 1023.87 1023.86 1023.87 1023.88 1023.87 1023.84 1023.79
1019.93 1019.44 1018.87 1018.25 1017.65 1017.11 1016.68 1016.40 1016.27 1016.31 1016.50 1016.81 1017.23 1017.70 1018.20 1018.70 1019.18 1019.63 1020.05 1020.45 1020.83 1021.21 1021.60 1021.99 1022.39 1022.77 1023.14 1023.46 1023.73 1023.93 1024.07 1024.15 1024.17 1024.16 1024.14 1024.11 1024.09 1024.08 1024.09 1024.09 1024.08 1024.04 1023.97 1023.87
1019.41 1018.84 1018.18 1017.51 1016.88 1016.34 1015.94 1015.69 1015.62 1015.72 1015.98 1016.36 1016.83 1017.35 1017.90 1018.44 1018.95 1019.44 1019.89 1020.33 1020.75 1021.18 1021.60 1022.03 1022.45 1022.85 1023.22 1023.53 1023.79 1023.97 1024.09 1024.16 1024.17 1024.16 1024.14 1024.12 1024.11 1024.11 1024.11 1024.10 1024.06 1023.98 1023.86 1023.70
1018.55 1017.94 1017.27 1016.61 1016.01 1015.53 1015.19 1015.02 1015.03 1015.21 1015.53 1015.97 1016.49 1017.06 1017.63 1018.20 1018.74 1019.24 1019.72 1020.18 1020.63 1021.08 1021.52 1021.95 1022.38 1022.77 1023.12 1023.41 1023.64 1023.80 1023.90 1023.95 1023.96 1023.95 1023.93 1023.92 1023.91 1023.91 1023.90 1023.86 1023.78 1023.67 1023.50 1023.28
1017.45 1016.85 1016.23 1015.64 1015.13 1014.74 1014.51 1014.44 1014.54 1014.79 1015.18 1015.66 1016.21 1016.79 1017.37 1017.94 1018.48 1018.99 1019.47 1019.94 1020.39 1020.84 1021.28 1021.70 1022.11 1022.48 1022.80 1023.06 1023.25 1023.38 1023.46 1023.50 1023.51 1023.50 1023.50 1023.49 1023.49 1023.47 1023.44 1023.38 1023.27 1023.11 1022.89 1022.63
1016.24 1015.71 1015.19 1014.71 1014.33 1014.07 1013.96 1013.99 1014.18 1014.49 1014.91 1015.41 1015.96 1016.52 1017.08 1017.63 1018.14 1018.64 1019.11 1019.56 1020.00 1020.43 1020.85 1021.26 1021.63 1021.96 1022.24 1022.47 1022.64 1022.75 1022.81 1022.85 1022.86 1022.87 1022.87 1022.87 1022.87 1022.85 1022.81 1022.72 1022.57 1022.37 1022.11 1021.82
1015.09 1014.65 1014.26 1013.92 1013.69 1013.57 1013.58 1013.71 1013.96 1014.32 1014.74 1015.22 1015.74 1016.26 1016.77 1017.26 1017.74 1018.19 1018.63 1019.06 1019.48 1019.89 1020.28 1020.65 1020.99 1021.29 1021.54 1021.74 1021.88 1021.98 1022.04 1022.08 1022.11 1022.13 1022.15 1022.17 1022.17 1022.15 1022.08 1021.97 1021.80 1021.56 1021.28 1020.95
1014.08 1013.77 1013.52 1013.34 1013.26 1013.27 1013.39 1013.60 1013.89 1014.25 1014.66 1015.10 1015.55 1016.00 1016.45 1016.88 1017.30 1017.71 1018.11 1018.51 1018.91 1019.30 1019.66 1020.01 1020.32 1020.59 1020.82 1020.99 1021.13 1021.22 1021.30 1021.35 1021.40 1021.44 1021.48 1021.51 1021.52 1021.49 1021.42 1021.28 1021.09 1020.83 1020.52 1020.18
1013.28 1013.10 1012.99 1012.96 1013.02 1013.16 1013.37 1013.63 1013.94 1014.29 1014.66 1015.03 1015.41 1015.79 1016.16 1016.53 1016.90 1017.28 1017.65 1018.03 1018.41 1018.78 1019.14 1019.46 1019.76 1020.01 1020.22 1020.39 1020.52 1020.63 1020.71 1020.79 1020.86 1020.92 1020.98 1021.02 1021.04 1021.01 1020.92 1020.78 1020.56 1020.29 1019.97 1019.62
1012.67 1012.62 1012.66 1012.78 1012.96 1013.20 1013.47 1013.77 1014.09 1014.41 1014.73 1015.04 1015.35 1015.66 1015.98 1016.30 1016.64 1016.99 1017.36 1017.73 1018.11 1018.48 1018.83 1019.15 1019.44 1019.68 1019.89 1020.06 1020.19 1020.31 1020.41 1020.50 1020.59 1020.68 1020.75 1020.81 1020.82 1020.79 1020.70 1020.55 1020.33 1020.05 1019.72 1019.37
1012.23 1012.31 1012.47 1012.71 1013.00 1013.32 1013.65 1013.98 1014.29 1014.58 1014.86 1015.13 1015.39 1015.66 1015.94 1016.24 1016.57 1016.93 1017.30 1017.69 1018.08 1018.46 1018.82 1019.14 1019.43 1019.68 1019.88 1020.05 1020.19 1020.31 1020.43 1020.54 1020.65 1020.75 1020.83 1020.90 1020.92 1020.89 1020.79 1020.64 1020.42 1020.14 1019.81 1019.46
1011.90 1012.09 1012.38 1012.73 1013.10 1013.49 1013.86 1014.21 1014.52 1014.80 1015.06 1015.30 1015.54 1015.80 1016.08 1016.39 1016.74 1017.12 1017.53 1017.95 1018.36 1018.76 1019.13 1019.47 1019.75 1020.00 1020.20 1020.37 1020.51 1020.64 1020.76 1020.88 1020.99 1021.10 1021.20 1021.26 1021.28 1021.26 1021.17 1021.01 1020.80 1020.53 1020.22 1019.89
1011.63 1011.94 1012.33 1012.76 1013.22 1013.66 1014.07 1014.44 1014.76 1015.04 1015.30 1015.55 1015.81 1016.08 1016.39 1016.74 1017.14 1017.56 1018.01 1018.46 1018.91 1019.33 1019.72 1020.05 1020.34 1020.58 1020.77 1020.93 1021.06 1021.19 1021.31 1021.43 1021.55 1021.66 1021.75 1021.82 1021.85 1021.82 1021.74 1021.60 1021.40 1021.16 1020.87 1020.56
1011.42 1011.82 1012.30 1012.81 1013.32 1013.81 1014.25 1014.65 1014.99 1015.30 1015.59 1015.87 1016.16 1016.48 1016.85 1017.26 1017.70 1018.18 1018.67 1019.16 1019.63 1020.07 1020.46 1020.79 1021.07 1021.29 1021.47 1021.62 1021.74 1021.85 1021.97 1022.08 1022.19 1022.31 1022.40 1022.47 1022.50 1022.49 1022.42 1022.30 1022.12 1021.90 1021.64 1021.36
1011.26 1011.74 1012.29 1012.85 1013.41 1013.94 1014.41 1014.84 1015.22 1015.56 1015.89 1016.22 1016.57 1016.95 1017.37 1017.84 1018.34 1018.87 1019.40 1019.92 1020.40 1020.84 1021.23 1021.55 1021.81 1022.01 1022.17 1022.30 1022.41 1022.51 1022.61 1022.72 1022.83 1022.94 1023.03 1023.11 1023.14 1023.14 1023.09 1022.98 1022.83 1022.64 1022.42 1022.17
1011.17 1011.72 1012.31 1012.92 1013.51 1014.06 1014.56 1015.02 1015.43 1015.81 1016.19 1016.57 1016.98 1017.42 1017.91 1018.43 1018.97 1019.53 1020.09 1020.62 1021.11 1021.54 1021.91 1022.21 1022.45 1022.63 1022.78 1022.89 1022.98 1023.07 1023.17 1023.27 1023.38 1023.49 1023.59 1023.66 1023.71 1023.72 1023.68 1023.60 1023.47 1023.30 1023.11 1022.88
1011.18 1011.77 1012.39 1013.02 1013.62 1014.19 1014.71 1015.18 1015.62 1016.05 1016.47 1016.90 1017.36 1017.86 1018.39 1018.95 1019.52 1020.10 1020.66 1021.19 1021.67 1022.09 1022.44 1022.72 1022.94 1023.11 1023.24 1023.34 1023.43 1023.52 1023.62 1023.72 1023.83 1023.94 1024.04 1024.12 1024.18 1024.19 1024.16 1024.10 1023.99 1023.84 1023.66 1023.45
1011.28 1011.90 1012.53 1013.16 1013.76 1014.33 1014.85 1015.34 1015.81 1016.26 1016.72 1017.19 1017.70 1018.23 1018.79 1019.37 1019.96 1020.54 1021.10 1021.61 1022.07 1022.47 1022.80 1023.07 1023.27 1023.44 1023.56 1023.67 1023.77 1023.87 1023.97 1024.09 1024.21 1024.32 1024.42 1024.51 1024.56 1024.58 1024.56 1024.49 1024.38 1024.24 1024.06 1023.84
1011.47 1012.08 1012.70 1013.32 1013.90 1014.46 1014.98 1015.48 1015.96 1016.44 1016.92 1017.43 1017.96 1018.51 1019.09 1019.68 1020.27 1020.84 1021.39 1021.89 1022.33 1022.71 1023.03 1023.29 1023.50 1023.66 1023.80 1023.93 1024.04 1024.16 1024.29 1024.41 1024.54 1024.66 1024.77 1024.85 1024.90 1024.91 1024.88 1024.80 1024.68 1024.52 1024.32 1024.08
1011.69 1012.28 1012.88 1013.46 1014.02 1014.56 1015.07 1015.57 1016.06 1016.56 1017.07 1017.60 1018.14 1018.72 1019.30 1019.90 1020.48 1021.04 1021.57 1022.05 1022.48 1022.86 1023.18 1023.44 1023.66 1023.85 1024.02 1024.17 1024.31 1024.45 1024.60 1024.74 1024.88 1025.00 1025.10 1025.18 1025.21 1025.20 1025.15 1025.05 1024.90 1024.70 1024.47 1024.19
1011.87 1012.43 1012.99 1013.54 1014.07 1014.59 1015.09 1015.59 1016.09 1016.61 1017.14 1017.68 1018.26 1018.84 1019.43 1020.03 1020.61 1021.16 1021.68 1022.16 1022.59 1022.96 1023.29 1023.58 1023.82 1024.04 1024.24 1024.42 1024.60 1024.77 1024.93 1025.09 1025.23 1025.34 1025.44 1025.49 1025.50 1025.47 1025.38 1025.24 1025.05 1024.81 1024.52 1024.19
1011.94 1012.46 1012.98 1013.48 1013.98 1014.48 1014.98 1015.49 1016.01 1016.54 1017.10 1017.68 1018.27 1018.88 1019.48 1020.09 1020.67 1021.23 1021.75 1022.23 1022.67 1023.06 1023.41 1023.72 1024.00 1024.26 1024.49 1024.70 1024.91 1025.10 1025.27 1025.43 1025.57 1025.67 1025.74 1025.77 1025.75 1025.67 1025.54 1025.36 1025.12 1024.83 1024.49 1024.10
Thickness
5654 5661 5661 5661 5662 5660 5654 5652 5647 5656 5660 5673 5677 5680 5681 5682 5681 5680 5680 5679 5679 5677 5676 5676 5675 5674 5673 5670 5668 5666 5662 5659 5657 5655 5652 5649 5647 5644 5641 5638 5636 5633 5630 5627
5648 5655 5654 5653 5657 5657 5656 5656 5654 5656 5660 5672 5674 5673 5673 5674 5674 5674 5673 5673 5672 5671 5670 5669 5668 5667 5666 5665 5663 5660 5657 5654 5652 5649 5646 5643 5641 5637 5634 5632 5629 5626 5624 5621
5630 5642 5644 5640 5652 5654 5654 5655 5655 5651 5660 5664 5663 5665 5667 5668 5668 5668 5668 5668 5666 5665 5664 5664 5663 5662 5660 5659 5657 5653 5651 5648 5645 5642 5639 5636 5634 5630 5628 5625 5622 5619 5617 5615
5618 5627 5621 5643 5656 5657 5653 5653 5653 5654 5657 5659 5660 5661 5662 5663 5662 5662 5663 5662 5661 5660 5659 5658 5657 5656 5654 5652 5650 5647 5645 5642 5639 5637 5634 5630 5627 5623 5620 5618 5615 5613 5610 5608
5605 5609 5618 5636 5648 5647 5644 5644 5650 5649 5651 5652 5653 5652 5652 5657 5657 5657 5657 5656 5655 5654 5653 5651 5650 5648 5646 5643 5642 5640 5637 5635 5633 5631 5628 5624 5621 5618 5614 5611 5608 5606 5604 5601
5597 5602 5607 5629 5645 5648 5642 5634 5645 5645 5644 5643 5642 5634 5642 5651 5650 5650 5649 5649 5647 5646 5645 5643 5641 5640 5637 5635 5633 5632 5631 5629 5627 5624 5622 5619 5616 5612 5609 5605 5602 5599 5596 5594
5593 5595 5607 5628 5637 5638 5621 5627 5641 5641 5639 5637 5633 5635 5640 5642 5641 5641 5641 5641 5640 5637 5636 5635 5633 5631 5629 5627 5626 5625 5623 5622 5619 5616 5614 5611 5608 5605 5601 5597 5594 5590 5588 5587
5586 5587 5602 5627 5625 5621 5623 5631 5632 5633 5634 5631 5630 5632 5632 5632 5632 5632 5631 5631 5630 5627 5626 5625 5624 5622 5621 5620 5619 5617 5614 5612 5610 5607 5605 5602 5599 5596 5592 5589 5585 5582 5579 5577
5594 5602 5614 5618 5619 5622 5622 5622 5624 5624 5625 5624 5623 5622 5623 5623 5623 5623 5622 5621 5620 5618 5616 5615 5614 5613 5611 5610 5609 5607 5604 5602 5600 5597 5595 5592 5589 5585 5582 5579 5576 5572 5570 5568
5590 5600 5606 5610 5612 5614 5614 5615 5616 5617 5617 5616 5614 5614 5614 5613 5613 5613 5612 5611 5610 5609 5607 5605 5603 5602 5602 5601 5599 5597 5594 5591 5589 5586 5584 5581 5579 5577 5573 5570 5567 5564 5562 5559
5584 5593 5598 5604 5604 5606 5607 5608 5608 5609 5608 5607 5606 5605 5605 5604 5604 5604 5603 5601 5600 5598 5597 5595 5593 5592 5591 5590 5589 5586 5583 5581 5579 5576 5574 5570 5568 5566 5565 5562 5560 5557 5555 5552
5583 5590 5589 5595 5599 5599 5598 5598 5599 5599 5598 5599 5598 5597 5597 5596 5596 5595 5594 5592 5590 5588 5587 5585 5584 5582 5580 5580 5578 5576 5573 5571 5568 5566 5563 5560 5557 5554 5553 5552 5550 5548 5546 5544
5585 5587 5586 5589 5590 5590 5589 5590 5590 5590 5590 5590 5590 5590 5589 5588 5587 5586 5585 5583 5581 5579 5577 5575 5574 5572 5571 5570 5568 5566 5564 5562 5559 5557 5554 5551 5548 5545 5542 5540 5539 5538 5536 5535
5579 5579 5578 5580 5580 5581 5581 5582 5582 5582 5582 5582 5581 5581 5580 5579 5578 5577 5576 5575 5573 5571 5568 5566 5564 5563 5562 5560 5558 5556 5555 5553 5551 5548 5545 5542 5540 5537 5534 5531 5527 5526 5525 5524
5572 5572 5572 5573 5572 5572 5572 5572 5571 5571 5572 5572 5572 5571 5571 5570 5569 5568 5568 5566 5564 5562 5559 5557 5556 5554 5553 5551 5548 5546 5544 5542 5540 5537 5534 5532 5529 5526 5523 5521 5517 5514 5512 5511
5564 5564 5564 5564 5564 5563 5563 5563 5562 5563 5563 5563 5562 5562 5562 5562 5561 5560 5558 5557 5554 5552 5550 5548 5546 5545 5543 5541 5539 5536 5534 5534 5531 5526 5524 5521 5518 5515 5512 5509 5506 5503 5501 5499
5556 5555 5555 5554 5555 5555 5555 5555 5555 5556 5555 5554 5554 5554 5553 5552 5551 5549 5548 5546 5545 5543 5541 5539 5537 5536 5534 5532 5530 5527 5525 5523 5521 5516 5513 5510 5507 5504 5501 5499 5495 5492 5490 5488
5553 5553 5551 5550 5549 5549 5549 5548 5548 5548 5547 5548 5547 5546 5544 5543 5541 5539 5538 5535 5534 5532 5531 5529 5528 5526 5525 5522 5520 5517 5514 5512 5509 5505 5502 5499 5496 5494 5491 5488 5485 5481 5479 5477
5547 5547 5546 5545 5544 5542 5541 5540 5540 5540 5541 5540 5539 5537 5536 5535 5533 5530 5528 5526 5524 5522 5521 5520 5519 5516 5514 5512 5510 5507 5504 5501 5498 5495 5492 5490 5487 5483 5480 5477 5474 5471 5469 5467
5541 5540 5539 5538 5537 5535 5534 5533 5533 5532 5532 5531 5529 5528 5526 5525 5523 5521 5519 5516 5515 5514 5513 5511 5509 5506 5504 5501 5499 5496 5494 5491 5488 5485 5482 5479 5476 5473 5470 5467 5464 5462 5459 5457
5532 5531 5531 5530 5529 5528 5527 5526 5525 5524 5523 5522 5520 5518 5517 5515 5513 5511 5509 5507 5507 5505 5504 5503 5499 5496 5494 5492 5489 5485 5483 5480 5477 5474 5471 5468 5465 5463 5460 5457 5455 5453 5450 5447
5521 5521 5521 5521 5520 5519 5518 5517 5516 5514 5513 5511 5511 5509 5507 5505 5503 5501 5500 5498 5498 5496 5494 5491 5489 5487 5485 5482 5478 5475 5471 5468 5465 5463 5460 5458 5455 5452 5449 5447 5445 5443 5440 5438
5511 5511 5512 5511 5511 5509 5508 5507 5506 5505 5503 5502 5500 5499 5497 5495 5493 5491 5489 5489 5488 5487 5484 5481 5480 5479 5476 5471 5467 5464 5461 5458 5455 5452 5449 5447 5444 5442 5439 5437 5435 5433 5430 5428
5502 5502 5502 5502 5501 5499 5498 5497 5496 5495 5494 5492 5491 5490 5488 5485 5483 5482 5481 5481 5480 5478 5474 5473 5471 5469 5465 5460 5456 5453 5450 5447 5444 5441 5439 5436 5434 5432 5429 5427 5425 5423 5421 5418
5494 5493 5492 5492 5491 5491 5490 5488 5486 5485 5483 5482 5480 5479 5478 5476 5474 5473 5471 5470 5469 5467 5464 5463 5461 5458 5453 5449 5446 5443 5440 5437 5434 5432 5429 5427 5424 5422 5420 5417 5415 5413 5411 5409
5485 5485 5485 5484 5484 5483 5481 5479 5477 5475 5473 5472 5471 5469 5468 5466 5465 5463 5461 5459 5458 5456 5453 5450 5447 5445 5442 5439 5436 5433 5431 5428 5425 5422 5420 5418 5415 5413 5410 5408 5406 5404 5402 5400
5477 5476 5475 5474 5474 5474 5473 5471 5468 5466 5465 5463 5461 5460 5458 5457 5455 5453 5451 5448 5446 5443 5441 5438 5436 5434 5431 5429 5426 5423 5421 5418 5416 5413 5411 5409 5406 5404 5402 5400 5397 5395 5393 5391